Location: *
(40.7873°S, 98.7174°E)
Time: 13:31:07
(UTC+00:00)

Cosmos 192 - Pass Details

Date: 28 September 2022
Orbit: 701 x 711 km, 74.0° (Epoch: 25 November)

Event Time Altitude Azimuth Distance (km) Brightness Sun altitude
Rises 21:22:54 0° 206° (SSW) 3,135 7.6 -19.4°
Reaches altitude 10° 21:25:18 10° 211° (SSW) 2,210 6.8 -18.9°
Maximum altitude 21:30:04 46° 283° (WNW) 957 4.5 -18.1°
Drops below altitude 10° 21:34:47 10° 356° (N) 2,187 6.6 -17.2°
Sets 21:37:10 0° 2° (N) 3,099 7.5 -16.8°
